[[{"header":{"parameterUnit":"m.s-1","parameterCategory":1,"la1":30.2991,"la2":30.254,"lo1":-89.0895,"lo2":-89.0444,"dy":0.0017,"dx":0.0017,"nx":28,"ny":28,"refTime":"2025-11-06T03:00:00:Z","depth":0,"parameterNumber":2,"parameterNumberName":"U-component_of_WINDS"},"data":[0,0,0,0,0,0,0,0,0,0,0,0,0,0,0,0,0,0,0,0,0,0,0,0,0,0,0,0,0,0,0,0,0,0,0,0,0,0,0,0,0,0,0,0,0,0,0,0,0,0,0,0,0,0,0,0,0,0,-2.1185,-2.1186,0,-2.127,-2.1271,-2.1271,-2.129,-2.1289,-2.1289,-2.1288,-2.1377,-2.138,-2.1383,0,0,0,0,0,0,0,0,0,0,0,0,0,-2.1041,-2.1043,-2.1185,-2.1186,-2.1187,-2.1269,-2.1271,-2.1272,-2.129,-2.1289,-2.1289,-2.1288,-2.1376,-2.138,-2.1383,0,0,0,0,0,0,0,0,0,0,0,0,0,-2.1112,-2.1044,-2.1184,-2.1206,-2.1209,-2.1269,-2.1271,-2.1272,-2.129,-2.1289,-2.1289,-2.1288,-2.1375,-2.1379,-2.1384,-2.1429,0,0,-2.1397,-2.1399,0,0,0,0,0,0,0,0,-2.1108,-2.1117,-2.1202,-2.1204,-2.1208,-2.1268,-2.1252,-2.1325,-2.1291,-2.1259,-2.1288,-2.1287,-2.1342,-2.1349,-2.1367,-2.1433,-2.1437,-2.1397,-2.14,-2.1402,-2.1403,0,0,0,0,0,0,0,-2.1103,-2.1114,-2.1218,-2.1203,-2.1207,-2.1212,-2.1221,-2.1266,-2.1305,-2.1262,-2.1264,-2.1273,-2.1343,-2.1362,-2.1369,-2.1439,-2.1397,-2.1401,-2.1404,-2.1406,-2.1547,-2.1548,0,0,0,0,0,0,-2.1094,-2.111,-2.1216,-2.1221,-2.1154,-2.1215,-2.1225,-2.125,-2.1304,-2.1312,-2.1274,-2.1274,-2.1355,-2.1364,-2.1372,-2.1429,-2.1402,-2.1406,-2.1409,-2.1546,-2.1548,-2.1549,0,0,0,0,0,0,-2.1091,-2.1103,-2.1212,-2.1166,-2.118,-2.1219,-2.1246,-2.1252,-2.1271,-2.1313,-2.132,-2.1286,-2.1355,-2.1366,-2.1415,-2.1432,-2.1408,-2.1412,-2.1545,-2.1547,-2.1548,-2.1543,0,0,0,0,0,0,-2.1087,-2.1102,-2.1119,-2.1166,-2.1182,-2.1253,-2.1247,-2.1254,-2.1279,-2.1279,-2.1327,-2.1334,-2.1355,-2.1408,-2.1419,-2.1438,-2.1415,-2.1543,-2.1546,-2.1548,-2.1542,-2.1545,-2.1547,0,0,0,0,0,-2.1081,-2.1115,-2.112,-2.1133,-2.1205,-2.1254,-2.1263,-2.1286,-2.128,-2.1298,-2.1325,-2.1332,-2.1429,-2.1413,-2.1426,-2.1446,-2.1542,-2.1545,-2.1547,-2.1541,-2.1544,-2.1547,0,0,0,0,0,0,-2.107,-2.1121,-2.1128,-2.1177,-2.1211,-2.1257,-2.128,-2.1289,-2.1326,-2.1325,-2.1352,-2.1363,-2.141,-2.1433,-2.1415,-2.1493,-2.1486,-2.1491,-2.1476,-2.148,-2.1482,-2.1475,-2.1419,0,0,0,0,0,-2.1073,-2.1108,-2.1151,-2.1191,-2.1207,-2.1241,-2.1263,-2.1278,-2.1314,-2.1329,-2.1359,-2.1395,-2.1433,-2.1458,-2.1496,-2.1546,-2.1557,-2.1566,-2.1569,-2.157,-2.1574,-2.1603,-2.1608,-2.1557,-2.1557,-2.1557,0,0,-2.108,-2.1113,-2.1133,-2.1189,-2.1217,-2.1253,-2.1253,-2.1291,-2.1318,-2.1335,-2.1382,-2.1406,-2.1448,-2.1498,-2.1521,-2.1518,-2.1591,-2.1574,-2.1575,-2.1578,-2.1606,-2.1611,-2.1615,-2.1559,-2.1558,-2.1558,0,0,-2.1111,-2.1139,-2.1175,-2.1203,-2.1245,-2.1267,-2.1275,-2.132,-2.1336,-2.1385,-2.1398,-2.1431,-2.1497,-2.1526,-2.1549,-2.1592,-2.16,-2.1603,-2.1615,-2.1643,-2.1647,-2.165,-2.1665,-2.167,-2.1607,-2.1607,-2.1607,0,-2.1114,-2.1169,-2.1192,-2.123,-2.1254,-2.1271,-2.1308,-2.1334,-2.1386,-2.1403,-2.1399,-2.1482,-2.1511,-2.1568,-2.1578,-2.1597,-2.1608,-2.1597,-2.1644,-2.1648,-2.1652,-2.1666,-2.1672,-2.1607,-2.1607,-2.1607,-2.1607,0,-2.1171,-2.1208,-2.1232,-2.1282,-2.1309,-2.1346,-2.1376,-2.1401,-2.1414,-2.1437,-2.1486,-2.1522,-2.1567,-2.1581,-2.1595,-2.164,-2.1637,-2.1638,-2.1631,-2.1656,-2.167,-2.1676,-2.1607,-2.1607,-2.1607,-2.1607,0,0,-2.1196,-2.1258,-2.1267,-2.1289,-2.1337,-2.1367,-2.1405,-2.1448,-2.1469,-2.1505,-2.1538,-2.1593,-2.1595,-2.1621,-2.1638,-2.1662,-2.1693,-2.1661,-2.1662,-2.1665,-2.1746,-2.1744,-2.175,-2.1699,-2.1701,-2.1702,-2.1742,0,-2.1233,-2.13,-2.1323,-2.1379,-2.1414,-2.143,-2.1464,-2.1497,-2.1519,-2.1553,-2.1578,-2.1617,-2.1616,-2.1632,-2.1657,-2.1684,-2.171,-2.1682,-2.173,-2.1732,-2.1719,-2.1757,-2.1756,-2.1792,-2.1748,-2.1749,-2.175,0,-2.1284,-2.132,-2.1379,-2.1422,-2.1438,-2.1467,-2.1509,-2.1541,-2.1579,-2.1594,-2.1623,-2.1639,-2.168,-2.167,-2.1728,-2.1708,-2.173,-2.1746,-2.1748,-2.1753,-2.1742,-2.1763,-2.1804,-2.1809,-2.1759,-2.1758,-2.1757,0,-2.1296,-2.1359,-2.1403,-2.1422,-2.1473,-2.1494,-2.1516,-2.1554,-2.1579,-2.1616,-2.1632,-2.1674,-2.1696,-2.1728,-2.1755,-2.1745,-2.181,-2.1802,-2.1823,-2.1822,-2.1835,-2.1834,-2.188,-2.185,-2.185,-2.185,-2.185,0,-2.1334,-2.1369,-2.1409,-2.1435,-2.1476,-2.1502,-2.1542,-2.1566,-2.1599,-2.1631,-2.1649,-2.1679,-2.1712,-2.1747,-2.1768,-2.1812,-2.1822,-2.1835,-2.184,-2.1833,-2.1832,-2.1847,-2.1845,-2.1851,-2.1851,-2.1851,-2.1851,0,-2.1354,-2.1381,-2.143,-2.1475,-2.1487,-2.1515,-2.1554,-2.1581,-2.1604,-2.1645,-2.1656,-2.1693,-2.1734,-2.1764,-2.1818,-2.1832,-2.1879,-2.1885,-2.1866,-2.1868,-2.1887,-2.1885,-2.1945,-2.1954,-2.1918,-2.1918,-2.1918,0,-2.1376,-2.1403,-2.1451,-2.1473,-2.1496,-2.1532,-2.1557,-2.1584,-2.161,-2.1656,-2.1678,-2.172,-2.1756,-2.1822,-2.1854,-2.1895,-2.1901,-2.1919,-2.1907,-2.19,-2.1901,-2.1899,-2.1902,-2.1921,-2.1921,-2.1921,-2.1921,0,-2.1412,-2.1424,-2.1459,-2.1499,-2.1528,-2.1562,-2.1595,-2.1613,-2.1646,-2.1674,-2.1716,-2.1744,-2.1799,-2.1841,-2.1885,-2.191,-2.1921,-2.1925,-2.1932,-2.1925,-2.1913,-2.1919,-2.187,-2.1923,-2.1923,-2.1923,-2.1923,-2.1923,-2.1433,-2.1458,-2.1496,-2.1534,-2.1562,-2.1593,-2.162,-2.1647,-2.1682,-2.1728,-2.1743,-2.1787,-2.1825,-2.1886,-2.1911,-2.1946,-2.1945,-2.1955,-2.1958,-2.196,-2.1959,-2.1907,-2.1955,-2.1955,-2.1955,-2.1955,-2.1955,0,-2.147,-2.1494,-2.153,-2.1575,-2.1606,-2.1613,-2.1651,-2.1676,-2.1714,-2.1749,-2.1783,-2.1832,-2.1873,-2.1908,-2.1951,-2.1973,-2.1979,-2.1983,-2.1981,-2.1987,-2.1958,-2.1947,-2.1977,-2.1977,-2.1977,-2.1977,-2.1977,-2.1977,-2.1492,-2.1535,-2.1552,-2.1609,-2.1634,-2.1676,-2.1697,-2.1726,-2.1753,-2.1807,-2.1841,-2.1863,-2.1898,-2.1944,-2.1982,-2.1992,-2.2006,-2.2009,-2.202,-2.1992,-2.1989,-2.1986,-2.1977,-2.2012,-2.2012,-2.2046,-2.2046,-2.2046]},{"header":{"parameterUnit":"m.s-1","parameterCategory":1,"la1":30.2991,"la2":30.254,"lo1":-89.0895,"lo2":-89.0444,"dy":0.0017,"dx":0.0017,"nx":28,"ny":28,"refTime":"2025-11-06T03:00:00:Z","depth":0,"parameterNumber":3,"parameterNumberName":"V-component_of_WINDS"},"data":[0,0,0,0,0,0,0,0,0,0,0,0,0,0,0,0,0,0,0,0,0,0,0,0,0,0,0,0,0,0,0,0,0,0,0,0,0,0,0,0,0,0,0,0,0,0,0,0,0,0,0,0,0,0,0,0,0,0,2.7043,2.7044,0,2.7118,2.7118,2.7119,2.7098,2.7097,2.7095,2.7094,2.7168,2.7172,2.7175,0,0,0,0,0,0,0,0,0,0,0,0,0,2.6883,2.6886,2.7043,2.7044,2.7045,2.7117,2.7118,2.7119,2.7099,2.7097,2.7095,2.7093,2.7167,2.7171,2.7175,0,0,0,0,0,0,0,0,0,0,0,0,0,2.6954,2.6887,2.7043,2.7043,2.7044,2.7117,2.7119,2.712,2.7099,2.7097,2.7095,2.7092,2.7166,2.7171,2.7176,2.7253,0,0,2.7191,2.7194,0,0,0,0,0,0,0,0,2.695,2.696,2.7042,2.7043,2.7044,2.7096,2.7089,2.7164,2.71,2.7078,2.7094,2.7091,2.7146,2.7153,2.7172,2.7256,2.7259,2.7192,2.7195,2.7197,2.7199,0,0,0,0,0,0,0,2.6945,2.6957,2.7072,2.7043,2.7045,2.704,2.7048,2.7103,2.7124,2.708,2.7078,2.7088,2.7146,2.7167,2.7173,2.726,2.7192,2.7196,2.7199,2.7201,2.7416,2.7418,0,0,0,0,0,0,2.694,2.6953,2.707,2.7075,2.6991,2.7045,2.7053,2.7082,2.7123,2.7127,2.709,2.7086,2.7159,2.7167,2.7176,2.7271,2.7197,2.7202,2.7205,2.7413,2.7417,2.7419,0,0,0,0,0,0,2.6936,2.695,2.7067,2.7014,2.7028,2.705,2.7082,2.7085,2.7105,2.7131,2.7134,2.7107,2.7158,2.7169,2.7235,2.7273,2.7204,2.7209,2.741,2.7414,2.7418,2.7461,0,0,0,0,0,0,2.6932,2.6949,2.6978,2.7014,2.7031,2.7125,2.7085,2.7088,2.7114,2.7111,2.7148,2.7152,2.7157,2.7227,2.724,2.7279,2.7213,2.7407,2.7412,2.7417,2.7456,2.7466,2.7474,0,0,0,0,0,2.6926,2.6986,2.698,2.6994,2.7068,2.7127,2.7136,2.7142,2.7117,2.7147,2.7164,2.715,2.7267,2.7234,2.7248,2.729,2.7404,2.7411,2.7416,2.7452,2.7464,2.7474,0,0,0,0,0,0,2.6952,2.699,2.6984,2.7057,2.7089,2.7123,2.7161,2.7153,2.7192,2.7187,2.7192,2.72,2.7269,2.7285,2.7248,2.7368,2.7332,2.7341,2.7355,2.7366,2.7375,2.737,2.7217,0,0,0,0,0,2.6967,2.7012,2.7043,2.7104,2.7121,2.7138,2.7164,2.7166,2.7199,2.7212,2.7233,2.7266,2.731,2.7339,2.738,2.7458,2.7468,2.7494,2.7503,2.751,2.7518,2.7564,2.7577,2.7439,2.7439,2.7439,0,0,2.6996,2.7023,2.7051,2.711,2.7135,2.7183,2.7149,2.72,2.7236,2.7219,2.7284,2.7301,2.7338,2.7411,2.7445,2.7427,2.7559,2.7518,2.7524,2.7528,2.7572,2.7585,2.7597,2.7443,2.7442,2.7442,0,0,2.7075,2.7099,2.7155,2.7181,2.722,2.7232,2.7246,2.7282,2.7294,2.7359,2.7349,2.7391,2.7466,2.7494,2.7518,2.7612,2.7601,2.7625,2.7672,2.7717,2.7728,2.7738,2.7774,2.7786,2.7633,2.7633,2.7633,0,2.7107,2.7178,2.7184,2.7237,2.7265,2.7254,2.7312,2.7337,2.7387,2.7407,2.7387,2.7484,2.7507,2.7589,2.7612,2.7631,2.7648,2.7621,2.7726,2.7736,2.7745,2.7779,2.7793,2.7636,2.7635,2.7635,2.7635,0,2.7217,2.7267,2.7307,2.7359,2.7391,2.7445,2.746,2.7492,2.7492,2.7507,2.7575,2.7603,2.7653,2.7672,2.7671,2.7754,2.7743,2.7724,2.7689,2.7761,2.7793,2.7806,2.764,2.7639,2.7638,2.7637,0,0,2.7312,2.7369,2.7384,2.7409,2.7453,2.7492,2.7547,2.7597,2.7625,2.7661,2.7709,2.7775,2.7759,2.7786,2.7789,2.7828,2.7905,2.7805,2.7806,2.7825,2.8002,2.8016,2.8031,2.7898,2.79,2.7902,2.7999,0,2.7397,2.7495,2.7504,2.7593,2.764,2.7633,2.7682,2.7715,2.773,2.7773,2.779,2.7838,2.7812,2.7829,2.7868,2.7887,2.794,2.788,2.7944,2.7946,2.7936,2.8048,2.8063,2.8153,2.8012,2.8014,2.8015,0,2.7508,2.755,2.7644,2.7685,2.7706,2.7749,2.7798,2.7838,2.7876,2.7885,2.7918,2.7916,2.7975,2.7937,2.8018,2.7977,2.8004,2.8018,2.8022,2.8029,2.7986,2.806,2.8181,2.8196,2.8035,2.8033,2.8032,0,2.7572,2.7651,2.7719,2.774,2.7789,2.782,2.7842,2.7878,2.7908,2.795,2.7971,2.8018,2.8045,2.8082,2.8094,2.8065,2.8177,2.8139,2.8187,2.8187,2.8211,2.821,2.8341,2.8226,2.8226,2.8225,2.8225,0,2.7666,2.7724,2.7749,2.779,2.7856,2.7867,2.7932,2.7952,2.7985,2.8031,2.8026,2.807,2.8083,2.8129,2.8138,2.8206,2.8217,2.8227,2.823,2.8229,2.8228,2.8247,2.8242,2.8229,2.8228,2.8228,2.8227,0,2.7747,2.7766,2.784,2.7881,2.7893,2.794,2.7976,2.8017,2.8033,2.8092,2.8107,2.8132,2.8186,2.8202,2.8267,2.8273,2.8354,2.8349,2.8342,2.8342,2.8391,2.8387,2.854,2.8561,2.8431,2.8432,2.8433,0,2.7807,2.7852,2.79,2.7932,2.7955,2.8005,2.8038,2.805,2.8084,2.8133,2.8169,2.8223,2.8267,2.8355,2.8379,2.843,2.8427,2.8478,2.8435,2.8434,2.8431,2.8429,2.8435,2.8486,2.8487,2.8488,2.8489,0,2.7912,2.792,2.7966,2.8018,2.8057,2.8098,2.8137,2.8163,2.8181,2.822,2.8277,2.8311,2.8379,2.8434,2.8486,2.8509,2.8503,2.8503,2.8517,2.8517,2.8512,2.8518,2.8366,2.8499,2.8498,2.8497,2.8497,2.8496,2.7986,2.8027,2.8068,2.8122,2.8153,2.8191,2.8233,2.8256,2.8304,2.8361,2.8365,2.8428,2.8468,2.8538,2.8563,2.8613,2.8598,2.8618,2.8623,2.8629,2.8634,2.8504,2.8622,2.8622,2.8621,2.8621,2.8621,0,2.8092,2.8119,2.8169,2.8225,2.8268,2.826,2.8304,2.8341,2.8396,2.8434,2.8479,2.8546,2.86,2.863,2.8685,2.8719,2.8718,2.8733,2.8731,2.8737,2.8643,2.8626,2.8733,2.8733,2.8733,2.8733,2.8733,2.8733,2.8153,2.8224,2.8237,2.8325,2.8351,2.8414,2.844,2.8475,2.8507,2.8582,2.8628,2.8648,2.8684,2.8741,2.8791,2.8799,2.882,2.8837,2.8843,2.8754,2.8743,2.8732,2.8717,2.8841,2.8841,2.8934,2.8935,2.8935]}]]